Weather History for Odense, Denmark

Change the Weather History Date:

Thursday, January 3, 2013

  Actual Average Record
Temperature  
Mean Temperature 45 °F -  
Max Temperature 49 °F 36 °F 49 °F (2013)
Min Temperature 41 °F 28 °F 17 °F (1997)
Degree Days  
Heating Degree Days 20    
Moisture  
Dew Point 45 °F    
Average Humidity 93    
Maximum Humidity 100    
Minimum Humidity 80    
Precipitation  
Precipitation 0.03 in - - ()
Sea Level Pressure  
Sea Level Pressure 29.98 in    
Wind  
Wind Speed 16 mph ()    
Max Wind Speed 26 mph    
Max Gust Speed 36 mph    
Visibility 6.0 miles    
Events Rain    
Averages and records for this station are not official NWS values.
T = Trace of Precipitation, MM = Missing Value Source: Averaged Metar Reports

Daily Weather History Graph

Daily Weather History Graph

Search for Another Location

Airport:

Trip Planner

Search our weather history database for the weather conditions in past years. The results will help you decide how hot, cold, wet, or windy it might be!

Date:

Astronomy

Jan. 03, 2013 Rise Set
Actual Time 8:45 AM CET 4:00 PM CET
Civil Twilight 8:00 AM CET 4:46 PM CET
Nautical Twilight 7:12 AM CET 5:34 PM CET
Astronomical Twilight 6:27 AM CET 6:19 PM CET
Moon 11:32 PM CET (1/3) 10:41 AM CET (1/3)
Length of Visible Light 8h 46m
Length of Day
7h 15m
Waning Gibbous, 68% of the Moon is Illuminated
Jan 3
Waning Gibbous
Jan 5
Last Quarter
Jan 11
New
Jan 19
First Quarter
Jan 27
Full

Hourly Weather History & Observations

Time (CET) Temp. Windchill Dew Point Humidity Pressure Visibility Wind Dir Wind Speed Gust Speed Precip Events Conditions
1:00 AM 41 °F - 41 °F 100% 30.00 in 4 mi SSW 15.0 mph - - Rain Light Rain
4:00 AM 43 °F - 43 °F 99% 29.92 in 6 mi SW 19.6 mph - - Rain Light Rain Showers
7:00 AM 46 °F - 46 °F 99% 29.92 in 4 mi WSW 16.1 mph - - Rain Rain
7:20 AM 46.4 °F 40.1 °F 46.4 °F 100% 29.92 in 6.2 mi West 15.0 mph - N/A   Mostly Cloudy
7:50 AM 46.4 °F 40.4 °F 46.4 °F 100% 29.92 in 6.2 mi West 13.8 mph - N/A   Scattered Clouds
8:20 AM 48.2 °F - 48.2 °F 100% 29.92 in 6.2 mi WSW 15.0 mph - N/A   Mostly Cloudy
8:50 AM 46.4 °F 40.4 °F 46.4 °F 100% 29.92 in 2.2 mi WSW 13.8 mph - N/A   Light Drizzle
9:20 AM 46.4 °F 39.5 °F 46.4 °F 100% 29.92 in 6.2 mi WSW 17.3 mph - N/A   Light Drizzle
9:50 AM 48.2 °F - 48.2 °F 100% 29.95 in 5.0 mi West 17.3 mph - N/A   Light Drizzle
10:00 AM 48 °F - 48 °F 99% 29.96 in 5 mi East 17.3 mph - - Rain Light Drizzle
10:20 AM 48.2 °F - 48.2 °F 100% 29.95 in 6.2 mi West 19.6 mph - N/A   Mostly Cloudy
10:50 AM 48.2 °F - 48.2 °F 100% 29.95 in 6.2 mi West 20.7 mph 32.2 mph N/A   Mostly Cloudy
11:20 AM 48.2 °F - 48.2 °F 100% 29.95 in 6.2 mi West 18.4 mph - N/A   Scattered Clouds
11:50 AM 48.2 °F - 46.4 °F 93% 29.95 in 6.2 mi West 24.2 mph 35.7 mph N/A   Partly Cloudy
12:50 PM 50.0 °F - 44.6 °F 82% 29.98 in 6.2 mi West 25.3 mph - N/A   Partly Cloudy
1:00 PM 49 °F - 45 °F 82% 29.99 in 16 mi West 23.0 mph - -   Partly Cloudy
1:50 PM 48.2 °F - 44.6 °F 87% 29.98 in 6.2 mi West 24.2 mph - N/A   Mostly Cloudy
2:50 PM 48.2 °F - 42.8 °F 82% 30.01 in 6.2 mi West 21.9 mph 33.4 mph N/A   Scattered Clouds
3:50 PM 46.4 °F 38.3 °F 42.8 °F 87% 30.04 in 6.2 mi West 23.0 mph - N/A   Scattered Clouds
4:00 PM - - - %  in - Calm Calm - -  
4:50 PM 46.4 °F 38.7 °F 41.0 °F 81% 30.09 in 6.2 mi West 20.7 mph - N/A   Mostly Cloudy
7:00 PM 45 °F - 41 °F 80% 30.15 in 5 mi West 19.6 mph - -   Mist
10:00 PM 44 °F - 41 °F 85% 30.19 in 5 mi West 26.5 mph - -   Mist